Weather History for Cincinnati, OH

Change the Weather History Date:

Friday, May 17, 2013

  Actual Average Record
Temperature  
Mean Temperature 68 °F -  
Max Temperature 81 °F 76 °F 94 °F (1962)
Min Temperature 57 °F 53 °F 39 °F (1973)
Cooling Degree Days 4    
Growing Degree Days 18 (Base 50)    
Moisture  
Dew Point 62 °F    
Average Humidity 91    
Maximum Humidity 100    
Minimum Humidity 58    
Precipitation  
Precipitation 0.01 in - - ()
Sea Level Pressure  
Sea Level Pressure 30.04 in    
Wind  
Wind Speed 1 mph (South)    
Max Wind Speed 8 mph    
Max Gust Speed -    
Visibility 5 miles    
Events Fog , Rain , Thunderstorm    
Averages and records for this station are not official NWS values.
T = Trace of Precipitation, MM = Missing Value Source: NWS Daily Summary

Daily Weather History Graph

Daily Weather History Graph

Search for Another Location

Airport:

Trip Planner

Search our weather history database for the weather conditions in past years. The results will help you decide how hot, cold, wet, or windy it might be!

Date:

Astronomy

May. 17, 2013 Rise Set
Actual Time 6:22 AM EDT 8:45 PM EDT
Civil Twilight 5:52 AM EDT 9:16 PM EDT
Nautical Twilight 5:14 AM EDT 9:53 PM EDT
Astronomical Twilight 4:33 AM EDT 10:35 PM EDT
Moon 12:52 PM EDT (5/17) 1:39 AM EDT (5/17)
Length of Visible Light 15h 23m
Length of Day
14h 23m
Waxing Crescent, 45% of the Moon is Illuminated
May 17
Waxing Crescent
May 18
First Quarter
May 25
Full
May 31
Last Quarter
Jun 8
New

Hourly Weather History & Observations

Time (EDT) Temp. Heat Index Dew Point Humidity Pressure Visibility Wind Dir Wind Speed Gust Speed Precip Events Conditions
12:53 AM 60.1 °F - 60.1 °F 100% 30.01 in 0.2 mi Calm Calm - N/A Fog Fog
1:53 AM 61.0 °F - 61.0 °F 100% 30.01 in 0.2 mi Calm Calm - N/A Fog Fog
2:53 AM 60.1 °F - 60.1 °F 100% 30.01 in 0.2 mi Calm Calm - N/A Fog Fog
3:53 AM 59.0 °F - 59.0 °F 100% 30.01 in 0.2 mi SW 3.5 mph - N/A Fog Fog
4:53 AM 60.1 °F - 60.1 °F 100% 30.01 in 0.2 mi Calm Calm - N/A Fog Fog
5:42 AM 59.0 °F - 59.0 °F 100% 30.03 in 1.0 mi NE 3.5 mph - N/A   Mist
5:53 AM 57.9 °F - 57.9 °F 100% 30.03 in 1.2 mi NNE 3.5 mph - N/A   Overcast
6:13 AM 57.2 °F - 57.2 °F 100% 30.04 in 0.5 mi Calm Calm - N/A Fog Fog
6:30 AM 57.2 °F - 57.2 °F 100% 30.05 in 0.2 mi Calm Calm - N/A Fog Fog
6:53 AM 57.9 °F - 57.9 °F 100% 30.05 in 0.2 mi Calm Calm - N/A Fog Fog
7:42 AM 60.8 °F - 60.8 °F 100% 30.06 in 0.8 mi Calm Calm - N/A   Overcast
7:48 AM 60.8 °F - 60.8 °F 100% 30.06 in 1.0 mi Calm Calm - N/A   Scattered Clouds
7:53 AM 60.8 °F - 60.8 °F 100% 30.06 in 2.0 mi Calm Calm - N/A   Scattered Clouds
8:07 AM 60.8 °F - 60.8 °F 100% 30.06 in 4.0 mi Calm Calm - N/A   Scattered Clouds
8:53 AM 63.0 °F - 62.1 °F 97% 30.07 in 4.0 mi Calm Calm - N/A   Partly Cloudy
9:53 AM 68.0 °F - 64.9 °F 90% 30.06 in 5.0 mi Calm Calm - N/A   Clear
10:53 AM 73.0 °F - 66.0 °F 79% 30.06 in 8.0 mi SW 5.8 mph - N/A   Mostly Cloudy
11:53 AM 75.0 °F - 64.0 °F 69% 30.06 in 10.0 mi Calm Calm - N/A   Overcast
12:53 PM 75.9 °F - 66.0 °F 71% 30.06 in 10.0 mi Calm Calm - N/A   Clear
1:53 PM 79.0 °F - 64.9 °F 62% 30.04 in 10.0 mi South 6.9 mph - N/A   Clear
2:53 PM 80.6 °F 82.3 °F 64.4 °F 58% 30.02 in 10.0 mi SSE 6.9 mph - N/A   Partly Cloudy
3:53 PM 75.0 °F - 64.9 °F 71% 30.02 in 10.0 mi South 5.8 mph - N/A   Clear
3:57 PM 75.2 °F - 64.4 °F 69% 30.02 in 10.0 mi South 6.9 mph - N/A Thunderstorm Thunderstorm
4:53 PM 66.0 °F - 63.0 °F 90% 30.03 in 5.0 mi South 5.8 mph - 0.01 in Rain , Thunderstorm Thunderstorms and Rain
5:41 PM 69.8 °F - 66.2 °F 88% 30.04 in 10.0 mi Calm Calm - 0.00 in   Overcast
5:53 PM 69.1 °F - 66.0 °F 90% 30.04 in 10.0 mi Calm Calm - 0.00 in   Mostly Cloudy
6:53 PM 69.1 °F - 64.9 °F 87% 30.04 in 10.0 mi Calm Calm - N/A   Mostly Cloudy
7:53 PM 69.1 °F - 66.0 °F 90% 30.05 in 9.0 mi ENE 8.1 mph - N/A   Overcast
8:53 PM 68.0 °F - 64.9 °F 90% 30.06 in 10.0 mi Calm Calm - N/A   Overcast
9:53 PM 66.0 °F - 64.9 °F 96% 30.06 in 7.0 mi Calm Calm - N/A   Mostly Cloudy
10:53 PM 64.9 °F - 64.9 °F 100% 30.07 in 4.0 mi Calm Calm - 0.00 in Rain Light Rain
11:53 PM 64.9 °F - 64.9 °F 100% 30.07 in 3.0 mi Calm Calm - 0.00 in Rain Light Rain